TimeMST,TemperatureF,Dew PointF,Humidity,Sea Level PressureIn,VisibilityMPH,Wind Direction,Wind SpeedMPH,Gust SpeedMPH,PrecipitationIn,Events,Conditions,WindDirDegrees,DateUTC
12:53 AM,30.0,19.0,64,30.12,10.0,SW,10.4,-,N/A,,Overcast,230,2013-02-18 07:53:00
1:53 AM,28.0,19.9,72,30.12,10.0,WSW,6.9,-,N/A,,Overcast,240,2013-02-18 08:53:00
2:53 AM,28.9,19.0,67,30.13,10.0,WSW,13.8,-,N/A,,Mostly Cloudy,250,2013-02-18 09:53:00
3:53 AM,27.0,19.0,72,30.13,10.0,SW,9.2,-,N/A,,Clear,230,2013-02-18 10:53:00
4:53 AM,23.0,18.0,81,30.14,10.0,WSW,6.9,-,N/A,,Clear,250,2013-02-18 11:53:00
5:53 AM,21.0,18.0,88,30.17,10.0,South,5.8,-,N/A,,Clear,190,2013-02-18 12:53:00
6:53 AM,21.0,17.1,85,30.19,10.0,Calm,Calm,-,N/A,,Scattered Clouds,0,2013-02-18 13:53:00
7:53 AM,19.9,16.0,85,30.19,10.0,Calm,Calm,-,N/A,,Partly Cloudy,0,2013-02-18 14:53:00
8:53 AM,27.0,21.0,78,30.19,10.0,Calm,Calm,-,N/A,,Partly Cloudy,0,2013-02-18 15:53:00
9:53 AM,32.0,19.0,59,30.17,10.0,Calm,Calm,-,N/A,,Partly Cloudy,0,2013-02-18 16:53:00
10:53 AM,35.1,16.0,46,30.16,10.0,SSW,10.4,-,N/A,,Partly Cloudy,200,2013-02-18 17:53:00
11:53 AM,36.0,17.1,46,30.15,10.0,SW,11.5,-,N/A,,Scattered Clouds,230,2013-02-18 18:53:00
12:53 PM,37.9,16.0,41,30.12,10.0,South,10.4,18.4,N/A,,Scattered Clouds,170,2013-02-18 19:53:00
1:53 PM,37.9,12.0,35,30.11,10.0,SSW,10.4,-,N/A,,Scattered Clouds,200,2013-02-18 20:53:00
2:53 PM,37.0,15.1,41,30.09,10.0,South,15.0,21.9,N/A,,Partly Cloudy,180,2013-02-18 21:53:00
3:53 PM,36.0,16.0,44,30.09,10.0,South,19.6,25.3,N/A,,Partly Cloudy,180,2013-02-18 22:53:00
4:53 PM,36.0,12.9,39,30.08,10.0,South,11.5,-,N/A,,Clear,180,2013-02-18 23:53:00
5:53 PM,33.1,12.0,42,30.09,10.0,South,8.1,-,N/A,,Clear,170,2013-02-19 00:53:00
6:53 PM,28.9,16.0,58,30.09,10.0,Calm,Calm,-,N/A,,Clear,0,2013-02-19 01:53:00
7:53 PM,28.0,16.0,61,30.08,10.0,ENE,4.6,-,N/A,,Clear,60,2013-02-19 02:53:00
8:53 PM,28.9,16.0,58,30.02,10.0,East,8.1,-,N/A,,Clear,100,2013-02-19 03:53:00
9:53 PM,28.0,14.0,56,29.99,10.0,East,8.1,-,N/A,,Clear,100,2013-02-19 04:53:00
10:53 PM,27.0,12.0,53,29.98,10.0,WNW,4.6,-,N/A,,Scattered Clouds,300,2013-02-19 05:53:00
11:53 PM,23.0,15.1,72,29.96,10.0,Calm,Calm,-,N/A,,Clear,0,2013-02-19 06:53:00